Regional Weather Roundup
Issued by NWS

Home | Current Version | Previous Version | Graphics & Text | Print | Product List | Glossary On
Versions: 1 2 3 4 5 6 7 8 9 10 11 12 13 14 15 16 17 18 19 20 21 22 23 24 25 26 27 28 29 30 31 32 33 34 35 36 37 38 39 40 41 42 43 44 45 46 47 48 49 50
000
ASUS44 KMEG 030810
RWRTN
TENNESSEE HOURLY STATE WEATHER ROUNDUP
NATIONAL WEATHER SERVICE MEMPHIS TN
300 AM CDT FRI JUL 03 2015

TNZ002-004-019-021-049-052-054-088>092-030900-
WEST TENNESSEE

CITY           SKY/WX    TMP DP  RH WIND       PRES   REMARKS
MEMPHIS INTL   CLOUDY    73  69  87 S7        29.87F
NWS MEMPHIS      N/A     72 N/A N/A MISG        N/A
JACKSON        CLOUDY    72  68  87 SW7       29.85F
DYERSBURG        N/A    N/A N/A N/A MISG        N/A
PARIS          MOCLDY    70  70 100 W5        29.85R
LEXINGTON      PTCLDY    68  68 100 CALM      29.85R
$$

TNZ008-025-027-028-033-062-065-066-030900-
NORTH MIDDLE TENNESSEE

CITY           SKY/WX    TMP DP  RH WIND       PRES   REMARKS
NASHVILLE      CLOUDY    73  73 100 CALM      29.86S
CLARKSVILLE    CLOUDY    73  71  93 SW5       29.83F
SMYRNA         CLOUDY    74  72  93 SW6       29.87S
COOKEVILLE     MOCLDY    72  72 100 CALM      29.89S
CROSSVILLE     CLOUDY    70  67  90 W5        29.94S
$$

TNZ061-075-076-078-094-096-097-030900-
SOUTH MIDDLE TENNESSEE

CITY           SKY/WX    TMP DP  RH WIND       PRES   REMARKS
FAYETTEVILLE   PTCLDY    73  70  88 W10       29.90S
TULLAHOMA      CLOUDY    73  70  88 SW3       29.91S
WINCHESTER     MOCLDY    73  72  94 W8        29.90S
MCMINNVILLE    CLOUDY    73  73 100 S3        29.89F
COLUMBIA       CLEAR     72  70  94 SW6       29.85F
SHELBYVILLE    MOCLDY   N/A N/A N/A MISG        N/A
$$

TNZ017-018-042-046-047-030900-
NORTHEAST TENNESSEE

CITY           SKY/WX    TMP DP  RH WIND       PRES   REMARKS
TRI CITIES     LGT RAIN  68  67  96 CALM      29.93S FOG
ELIZABETHTON   CLOUDY    64  64 100 CALM      29.94S
$$

TNZ012-013-036-069-073-074-030900-
CENTRAL EAST TENNESSEE

CITY           SKY/WX    TMP DP  RH WIND       PRES   REMARKS
KNOXVILLE      LGT RAIN  71  69  93 SW6       29.88F
OAK RIDGE      CLOUDY    71  69  93 SW5       29.89F
GATLINBURG     CLOUDY    70  66  88 W5        29.90S
MORRISTOWN       N/A     70  70 100 SW6       29.91F
$$

TNZ083-085-099-030900-
SOUTHEAST TENNESSEE

CITY           SKY/WX    TMP DP  RH WIND       PRES   REMARKS
CHATTANOOGA    LGT RAIN  73  71  93 SE3       29.90F
$$

SKY/WX REPORTED AS FAIR MEANS FEW OR NO CLOUDS BELOW
12 THOUSAND FEET.




USA.gov is the U.S. government's official web portal to all federal, state and local government web resources and services.